{"data":{"norad_id":63648,"intl_designator":"2025-083Q","name":"STARLINK-33717","alt_names":[],"object_type":"PAYLOAD","status":"ACTIVE","operator":null,"country":"US","launch_date":"2025-04-25","launch_site_code":"AFETR","launch_vehicle":null,"mission":null,"orbit_class":"UNKNOWN","rcs_meters":null,"size_class":null,"mass_kg":null,"dimensions":null,"purposes":["comms"],"wikipedia_slug":null,"has_3d_model":false,"image_url":null,"decayed_at":null,"tle_current":{"epoch":"2026-09-19T14:05:49.755552Z","epoch_age_seconds":231417,"freshness":"STALE","line1":"1 63648U 25083Q   26262.58738143  .00014682  00000+0  54152-3 0  9992","line2":"2 63648  43.0023 349.9457 0002070 279.3444  80.7173 15.27607363 79725","mean_motion":15.27607363,"eccentricity":0.000207,"inclination_deg":43.0023,"raan_deg":349.9457,"arg_perigee_deg":279.3444,"mean_anomaly_deg":80.7173,"bstar":0.00054152,"rev_number":7972,"period_min":94.265060176985,"perigee_km":481.54691403524,"apogee_km":484.38741115856,"semimajor_km":6861.1041625969,"source":"CELESTRAK","updated_at":"2026-09-21T09:00:35.053516Z"}}}